LRSV Weather Reports


time (UTC)temp
F
wind
direction
speed
knots
gust
knots
rain 1hr
in
rain 24hr
in
rain mn
in
humidity
%
barometer
mb
20260506133320 77 140 17.4 0.0 0.00 0.00 0.00 26 1011.0
20260506131820 79 140 15.6 0.0 0.00 0.00 0.00 26 1011.0
20260506130329 79 140 15.6 0.0 0.00 0.00 0.00 26 1011.0
20260506124821 79 140 17.4 0.0 0.00 0.00 0.00 24 1012.0
20260506123320 79 140 17.4 0.0 0.00 0.00 0.00 24 1012.0
20260506121820 79 150 15.6 0.0 0.00 0.00 0.00 23 1012.0
20260506120320 79 150 15.6 0.0 0.00 0.00 0.00 23 1012.0
20260506114820 79 150 13.0 0.0 0.00 0.00 0.00 26 1012.0
20260506113320 79 150 13.0 0.0 0.00 0.00 0.00 26 1012.0
20260506111820 79 160 12.2 0.0 0.00 0.00 0.00 23 1013.0
20260506110320 79 160 12.2 0.0 0.00 0.00 0.00 23 1013.0
20260506104820 79 150 13.0 0.0 0.00 0.00 0.00 24 1013.0
20260506103320 79 150 13.0 0.0 0.00 0.00 0.00 24 1013.0
20260506101820 77 150 14.8 0.0 0.00 0.00 0.00 26 1013.0
20260506100320 77 150 14.8 0.0 0.00 0.00 0.00 26 1013.0
20260506094820 77 170 13.0 0.0 0.00 0.00 0.00 24 1013.0
20260506093320 77 170 13.0 0.0 0.00 0.00 0.00 24 1013.0
20260506091820 75 150 9.6 0.0 0.00 0.00 0.00 34 1013.0
20260506090320 75 150 9.6 0.0 0.00 0.00 0.00 34 1013.0
20260506084820 73 170 6.1 0.0 0.00 0.00 0.00 38 1013.0
20260506083320 73 170 6.1 0.0 0.00 0.00 0.00 38 1013.0
20260506081817 72 200 5.2 0.0 0.00 0.00 0.00 38 1013.0
20260506080320 72 200 5.2 0.0 0.00 0.00 0.00 38 1013.0
20260506073320 70 210 5.2 0.0 0.00 0.00 0.00 40 1013.0
20260506071820 66 210 5.2 0.0 0.00 0.00 0.00 43 1013.0
20260506070320 66 210 5.2 0.0 0.00 0.00 0.00 43 1013.0
20260506061820 63 220 2.6 0.0 0.00 0.00 0.00 52 1013.0
20260506060321 63 220 2.6 0.0 0.00 0.00 0.00 52 1013.0
20260506050334 59 240 7.8 0.0 0.00 0.00 0.00 51 1013.0
20260506044835 55 240 8.7 0.0 0.00 0.00 0.00 55 1013.0
20260506043324 55 240 8.7 0.0 0.00 0.00 0.00 55 1013.0
20260506041821 54 230 9.6 0.0 0.00 0.00 0.00 58 1012.0
20260506040320 54 230 9.6 0.0 0.00 0.00 0.00 58 1012.0
20260506034820 52 230 11.3 0.0 0.00 0.00 0.00 62 1012.0
20260506033320 52 230 11.3 0.0 0.00 0.00 0.00 62 1012.0
20260506031820 55 240 8.7 0.0 0.00 0.00 0.00 51 1012.0
20260506030319 55 240 8.7 0.0 0.00 0.00 0.00 51 1012.0
20260506024820 52 230 8.7 0.0 0.00 0.00 0.00 62 1012.0
20260506023320 52 230 8.7 0.0 0.00 0.00 0.00 62 1012.0
20260506021820 54 210 7.8 0.0 0.00 0.00 0.00 58 1012.0
20260506020320 54 210 7.8 0.0 0.00 0.00 0.00 58 1012.0
20260506014820 54 210 8.7 0.0 0.00 0.00 0.00 63 1012.0
20260506013320 54 210 8.7 0.0 0.00 0.00 0.00 63 1012.0
20260506011820 54 220 9.6 0.0 0.00 0.00 0.00 63 1012.0
20260506010320 54 220 9.6 0.0 0.00 0.00 0.00 63 1012.0
20260506004820 55 210 8.7 0.0 0.00 0.00 0.00 59 1012.0
20260506003437 55 210 8.7 0.0 0.00 0.00 0.00 59 1012.0
20260506001820 55 210 8.7 0.0 0.00 0.00 0.00 63 1012.0
20260506000322 55 210 8.7 0.0 0.00 0.00 0.00 63 1012.0
20260505234820 57 190 7.0 0.0 0.00 0.00 0.00 55 1012.0
20260505233320 57 190 7.0 0.0 0.00 0.00 0.00 55 1012.0
20260505231820 57 190 7.8 0.0 0.00 0.00 0.00 59 1012.0
20260505230320 57 190 7.8 0.0 0.00 0.00 0.00 59 1012.0
20260505224820 55 180 8.7 0.0 0.00 0.00 0.00 63 1012.0
20260505223320 55 180 8.7 0.0 0.00 0.00 0.00 63 1012.0
20260505221817 57 180 8.7 0.0 0.00 0.00 0.00 59 1012.0
20260505220320 57 180 8.7 0.0 0.00 0.00 0.00 59 1012.0
20260505214821 57 180 8.7 0.0 0.00 0.00 0.00 55 1012.0
20260505213320 57 180 8.7 0.0 0.00 0.00 0.00 55 1012.0
20260505211820 59 170 9.6 0.0 0.00 0.00 0.00 48 1012.0
20260505210320 59 170 9.6 0.0 0.00 0.00 0.00 48 1012.0
20260505204822 59 180 9.6 0.0 0.00 0.00 0.00 48 1012.0
20260505203319 59 180 9.6 0.0 0.00 0.00 0.00 48 1012.0
20260505201851 59 170 7.8 0.0 0.00 0.00 0.00 45 1012.0
20260505200320 59 170 7.8 0.0 0.00 0.00 0.00 45 1012.0
20260505194820 63 160 7.8 0.0 0.00 0.00 0.00 39 1012.0
20260505193320 63 160 7.8 0.0 0.00 0.00 0.00 39 1012.0
20260505191820 63 170 7.0 0.0 0.00 0.00 0.00 39 1012.0
20260505190319 63 170 7.0 0.0 0.00 0.00 0.00 39 1012.0
20260505184821 63 150 8.7 0.0 0.00 0.00 0.00 39 1012.0
20260505183320 63 150 8.7 0.0 0.00 0.00 0.00 39 1012.0
20260505181821 64 150 7.8 0.0 0.00 0.00 0.00 40 1012.0
20260505180320 64 150 7.8 0.0 0.00 0.00 0.00 40 1012.0
20260505174817 66 150 7.8 0.0 0.00 0.00 0.00 40 1012.0
20260505173320 66 150 7.8 0.0 0.00 0.00 0.00 40 1012.0
20260505171820 68 150 8.7 0.0 0.00 0.00 0.00 38 1012.0
20260505170320 68 150 8.7 0.0 0.00 0.00 0.00 38 1012.0
20260505164820 72 140 7.0 0.0 0.00 0.00 0.00 36 1011.0
20260505163320 72 140 7.0 0.0 0.00 0.00 0.00 36 1011.0
20260505161821 75 140 7.0 0.0 0.00 0.00 0.00 25 1011.0
20260505160320 75 140 7.0 0.0 0.00 0.00 0.00 25 1011.0
20260505153320 77 120 7.8 0.0 0.00 0.00 0.00 26 1012.0
20260505151828 77 130 8.7 0.0 0.00 0.00 0.00 22 1012.0
20260505150321 77 130 8.7 0.0 0.00 0.00 0.00 22 1012.0
20260505140320 77 140 7.0 0.0 0.00 0.00 0.00 15 1012.0